Cando, ND

5:57 AM CDT on June 23, 2017 (GMT -0500)
Cando

Weather History for K9D7 - December, 2012

Change the Weather History Date:

Friday, December 28, 2012

  Actual Average (KDVL) Record (KDVL)
Temperature  
Mean Temperature 2 °F -  
Max Temperature 10 °F 18 °F 46 °F (1980)
Min Temperature -7 °F 0 °F -27 °F (1993)
Degree Days  
Heating Degree Days 64    
Moisture  
Dew Point 3 °F    
Average Humidity 87    
Maximum Humidity 92    
Minimum Humidity 77    
Precipitation  
Precipitation 0.00 in - - ()
Sea Level Pressure  
Sea Level Pressure 29.99 in    
Wind  
Wind Speed 8 mph (WSW)    
Max Wind Speed 16 mph    
Max Gust Speed -    
Visibility 9 miles    
Events Snow    
Averages and records for this station are not official NWS values.
T = Trace of Precipitation, MM = Missing Value Source: NWS Daily Summary

Daily Weather History Graph

Daily Weather History Graph

Search for Another Location

Airport or City:

Trip Planner

Search our weather history database for the weather conditions in past years. The results will help you decide how hot, cold, wet, or windy it might be!

Date:

Astronomy

Dec. 28, 2012 Rise Set
Actual Time 8:28 AM CST 4:49 PM CST
Civil Twilight 7:51 AM CST 5:26 PM CST
Nautical Twilight 7:11 AM CST 6:06 PM CST
Astronomical Twilight 6:33 AM CST 6:44 PM CST
Moon 5:32 PM CST (12/28) 8:19 AM CST (12/28)
Length of Visible Light 9h 34m
Length of Day
8h 20m
Full, 100% of the Moon is Illuminated
Dec 28
Full
Jan 4
Last Quarter
Jan 11
New
Jan 18
First Quarter
Jan 26
Full

Hourly Weather History & Observations

Time (CST) Temp. Windchill Dew Point Humidity Pressure Visibility Wind Dir Wind Speed Gust Speed Precip Events Conditions
12:15 AM 6.8 °F -4.8 °F 5.0 °F 92% 30.06 in 5.0 mi SSW 6.9 mph - N/A   Overcast
12:35 AM 6.8 °F -4.8 °F 5.0 °F 92% 30.06 in 7.0 mi SSW 6.9 mph - N/A   Overcast
12:55 AM 8.6 °F -1.3 °F 5.0 °F 85% 30.06 in 10.0 mi SSW 5.8 mph - N/A   Overcast
1:15 AM 8.6 °F -2.6 °F 6.8 °F 92% 30.05 in 4.0 mi SSW 6.9 mph - N/A Snow Light Snow
1:35 AM 8.6 °F -2.6 °F 6.8 °F 92% 30.05 in 3.0 mi SSW 6.9 mph - N/A Snow Light Snow
1:55 AM 8.6 °F -1.3 °F 6.8 °F 92% 30.05 in 4.0 mi SSW 5.8 mph - N/A   Overcast
2:15 AM 8.6 °F -1.3 °F 6.8 °F 92% 30.04 in 4.0 mi SSW 5.8 mph - N/A   Overcast
2:35 AM 8.6 °F -2.6 °F 6.8 °F 92% 30.04 in 4.0 mi South 6.9 mph - N/A   Overcast
2:55 AM 8.6 °F -1.3 °F 5.0 °F 85% 30.04 in 5.0 mi SSW 5.8 mph - N/A   Overcast
3:15 AM 6.8 °F -2.0 °F 5.0 °F 92% 30.04 in 7.0 mi SSW 4.6 mph - N/A   Overcast
3:35 AM 6.8 °F -3.5 °F 5.0 °F 92% 30.03 in 10.0 mi SSW 5.8 mph - N/A   Overcast
3:55 AM 6.8 °F -2.0 °F 3.2 °F 85% 30.03 in 7.0 mi SSW 4.6 mph - N/A   Overcast
4:15 AM 5.0 °F -5.6 °F 1.4 °F 85% 30.03 in 9.0 mi SSW 5.8 mph - N/A   Overcast
4:35 AM 3.2 °F -9.1 °F -0.4 °F 85% 30.02 in 10.0 mi SSW 6.9 mph - N/A   Overcast
4:55 AM 1.4 °F -6.2 °F -0.4 °F 92% 30.01 in 10.0 mi SSW 3.5 mph - N/A   Overcast
5:15 AM 5.0 °F -5.6 °F 1.4 °F 85% 30.02 in 8.0 mi SW 5.8 mph - N/A   Overcast
5:35 AM 5.0 °F -6.9 °F 1.4 °F 85% 30.01 in 10.0 mi SSW 6.9 mph - N/A   Overcast
6:15 AM 5.0 °F -4.1 °F 1.4 °F 85% 30.01 in 10.0 mi SSW 4.6 mph - N/A   Overcast
6:35 AM 5.0 °F -4.1 °F 1.4 °F 85% 30.01 in 10.0 mi SSW 4.6 mph - N/A   Overcast
6:55 AM 5.0 °F -4.1 °F 1.4 °F 85% 30.01 in 10.0 mi SSW 4.6 mph - N/A   Overcast
7:15 AM 5.0 °F -5.6 °F 3.2 °F 92% 30.01 in 10.0 mi SW 5.8 mph - N/A   Mostly Cloudy
7:55 AM 6.8 °F -2.0 °F 3.2 °F 85% 30.01 in 10.0 mi SSW 4.6 mph - N/A   Overcast
8:15 AM 5.0 °F -2.1 °F 3.2 °F 92% 30.01 in 10.0 mi SSW 3.5 mph - N/A   Overcast
8:35 AM 6.8 °F -2.0 °F 3.2 °F 85% 30.01 in 10.0 mi SW 4.6 mph - N/A   Overcast
8:55 AM 6.8 °F -3.5 °F 3.2 °F 85% 30.01 in 10.0 mi SSW 5.8 mph - N/A   Overcast
9:15 AM 6.8 °F -2.0 °F 5.0 °F 92% 30.01 in 10.0 mi SSW 4.6 mph - N/A   Overcast
9:35 AM 6.8 °F -3.5 °F 5.0 °F 92% 30.01 in 10.0 mi SSW 5.8 mph - N/A   Overcast
10:15 AM 8.6 °F -2.6 °F 5.0 °F 85% 30.01 in 10.0 mi SW 6.9 mph - N/A   Overcast
10:35 AM 8.6 °F -2.6 °F 6.8 °F 92% 30.01 in 10.0 mi SW 6.9 mph - N/A   Overcast
10:55 AM 8.6 °F -3.7 °F 5.0 °F 85% 30.01 in 10.0 mi WSW 8.1 mph - N/A   Overcast
11:15 AM 8.6 °F -3.7 °F 6.8 °F 92% 30.00 in 10.0 mi SW 8.1 mph - N/A   Overcast
11:35 AM 8.6 °F -2.6 °F 6.8 °F 92% 30.00 in 10.0 mi WSW 6.9 mph - N/A   Overcast
12:15 PM 10.4 °F -1.5 °F 6.8 °F 85% 29.99 in 10.0 mi WSW 8.1 mph - N/A   Overcast
12:35 PM 10.4 °F -2.4 °F 6.8 °F 85% 29.98 in 10.0 mi WSW 9.2 mph - N/A   Mostly Cloudy
12:55 PM 8.6 °F -2.6 °F 5.0 °F 85% 29.97 in 10.0 mi WSW 6.9 mph - N/A   Mostly Cloudy
1:15 PM 10.4 °F -2.4 °F 6.8 °F 85% 29.96 in 10.0 mi WSW 9.2 mph - N/A   Overcast
1:35 PM 10.4 °F -3.3 °F 6.8 °F 85% 29.96 in 10.0 mi West 10.4 mph - N/A   Overcast
1:55 PM 10.4 °F -2.4 °F 6.8 °F 85% 29.95 in 10.0 mi WSW 9.2 mph - N/A   Overcast
2:15 PM 10.4 °F -2.4 °F 6.8 °F 85% 29.95 in 10.0 mi WSW 9.2 mph - N/A   Overcast
2:35 PM 10.4 °F -3.3 °F 6.8 °F 85% 29.95 in 3.0 mi West 10.4 mph - N/A Snow Light Snow
2:55 PM 10.4 °F -2.4 °F 6.8 °F 85% 29.95 in 4.0 mi WSW 9.2 mph - N/A Snow Light Snow
3:15 PM 10.4 °F -2.4 °F 6.8 °F 85% 29.95 in 7.0 mi West 9.2 mph - N/A Snow Light Snow
3:35 PM 10.4 °F -2.4 °F 6.8 °F 85% 29.96 in 10.0 mi West 9.2 mph - N/A   Overcast
3:55 PM 10.4 °F -1.5 °F 6.8 °F 85% 29.96 in 6.0 mi West 8.1 mph - N/A Snow Light Snow
4:15 PM 10.4 °F -0.4 °F 6.8 °F 85% 29.95 in 5.0 mi WSW 6.9 mph - N/A Snow Light Snow
4:35 PM 10.4 °F -2.4 °F 8.6 °F 92% 29.96 in 9.0 mi WSW 9.2 mph - N/A   Overcast
4:55 PM 10.4 °F -0.4 °F 6.8 °F 85% 29.95 in 10.0 mi WSW 6.9 mph - N/A   Overcast
5:15 PM 10.4 °F -3.3 °F 6.8 °F 85% 29.96 in 10.0 mi West 10.4 mph - N/A   Overcast
5:35 PM 8.6 °F -5.5 °F 5.0 °F 85% 29.97 in 10.0 mi West 10.4 mph - N/A   Overcast
5:55 PM 8.6 °F -4.7 °F 5.0 °F 85% 29.97 in 10.0 mi West 9.2 mph - N/A   Overcast
6:15 PM 8.6 °F -5.5 °F 6.8 °F 92% 29.96 in 10.0 mi West 10.4 mph - N/A   Overcast
6:35 PM 8.6 °F -7.0 °F 5.0 °F 85% 29.96 in 10.0 mi West 12.7 mph - N/A   Overcast
6:55 PM 5.0 °F -11.6 °F 1.4 °F 85% 29.96 in 10.0 mi West 12.7 mph - N/A   Mostly Cloudy
7:15 PM 1.4 °F -14.5 °F -0.4 °F 92% 29.96 in 10.0 mi West 10.4 mph - N/A   Mostly Cloudy
7:35 PM 6.8 °F -9.3 °F 3.2 °F 85% 29.96 in 10.0 mi West 12.7 mph - N/A   Overcast
7:55 PM 5.0 °F -11.6 °F 1.4 °F 85% 29.96 in 10.0 mi West 12.7 mph - N/A   Overcast
8:15 PM 1.4 °F -16.9 °F -0.4 °F 92% 29.95 in 10.0 mi West 13.8 mph - N/A   Mostly Cloudy
8:35 PM -0.4 °F -19.9 °F -2.2 °F 92% 29.95 in 10.0 mi West 15.0 mph - N/A   Partly Cloudy
8:55 PM -0.4 °F -18.4 °F -4.0 °F 85% 29.96 in 10.0 mi West 12.7 mph - N/A   Clear
9:15 PM -2.2 °F -19.9 °F -5.8 °F 85% 29.96 in 10.0 mi West 11.5 mph - N/A   Partly Cloudy
9:35 PM -2.2 °F -21.5 °F -7.6 °F 78% 29.96 in 10.0 mi WNW 13.8 mph - N/A   Partly Cloudy
9:55 PM -4.0 °F -22.1 °F -9.4 °F 78% 29.96 in 10.0 mi West 11.5 mph - N/A   Clear
10:15 PM -4.0 °F -23.7 °F -9.4 °F 78% 29.96 in 10.0 mi West 13.8 mph - N/A   Clear
10:35 PM -7.6 °F -27.5 °F - N/A% 29.96 in 10.0 mi West 12.7 mph - N/A   Clear
10:55 PM -7.6 °F -27.5 °F -13.0 °F 77% 29.96 in 10.0 mi West 12.7 mph - N/A   Clear
11:15 PM -5.8 °F -27.5 °F -11.2 °F 77% 29.96 in 10.0 mi West 16.1 mph - N/A   Scattered Clouds
11:35 PM -5.8 °F -24.4 °F -11.2 °F 77% 29.96 in 10.0 mi West 11.5 mph - N/A   Overcast
11:55 PM -7.6 °F -26.6 °F -11.2 °F 84% 29.96 in 10.0 mi WNW 11.5 mph - N/A   Mostly Cloudy